Retour au catalogue

INTELSAT 34

ActifCommunicationsGEO
NORAD 40874·PAYLOAD· XX

Lancé Aug 20, 2015 depuis Guiana Space Centre

Loading…

TLE

FraisSource: CelesTrak SupGP

Époque: Sep 14, 2026, 00:00 UTC

1 40874C 15039A   26257.00000000 -.00003656  00000+0  00000+0 0  2579
2 40874   0.0246 289.4856 0000437 131.6812 236.3242  1.00272043    17

Suivez INTELSAT 34 en temps réel avec AllMySat

Download on the App Store